Change the Weather History Date:

Sunday, April 28, 2013

  Actual Average Record
Temperature  
Mean Temperature 52 °F -  
Max Temperature 56 °F 63 °F 84 °F (1986)
Min Temperature 48 °F 38 °F 24 °F (1967)
Degree Days  
Heating Degree Days 13    
Growing Degree Days 2 (Base 50)    
Moisture  
Dew Point 49 °F    
Average Humidity 87    
Maximum Humidity 100    
Minimum Humidity 50    
Precipitation  
Precipitation 0.00 in - - ()
Sea Level Pressure  
Sea Level Pressure 29.92 in    
Wind  
Wind Speed 6 mph (East)    
Max Wind Speed 10 mph    
Max Gust Speed 16 mph    
Visibility 5 miles    
Events Fog , Rain    
Averages and records for this station are not official NWS values.
T = Trace of Precipitation, MM = Missing Value Source: NWS Daily Summary

Daily Weather History Graph

Daily Weather History Graph

Search for Another Location

Airport or City:

Trip Planner

Search our weather history database for the weather conditions in past years. The results will help you decide how hot, cold, wet, or windy it might be!

Date:

Astronomy

Apr. 28, 2013 Rise Set
Actual Time 6:38 AM EDT 8:34 PM EDT
Civil Twilight 6:08 AM EDT 9:04 PM EDT
Nautical Twilight 5:31 AM EDT 9:41 PM EDT
Astronomical Twilight 4:51 AM EDT 10:21 PM EDT
Moon No Moon Rise 8:52 AM EDT (4/28)
Length of Visible Light 14h 56m
Length of Day
13h 55m
Waning Gibbous, 89% of the Moon is Illuminated
Apr 28
Waning Gibbous
May 2
Last Quarter
May 9
New
May 18
First Quarter
May 25
Full

Hourly Weather History & Observations

Time (EDT) Temp. Dew Point Humidity Pressure Visibility Wind Dir Wind Speed Gust Speed Precip Events Conditions
12:15 AM 52.3 °F 34.3 °F 50% 30.08 in 10.0 mi ESE 8.1 mph - N/A   Overcast
12:34 AM 52.3 °F 34.3 °F 50% 30.09 in 10.0 mi ESE 9.2 mph - N/A   Overcast
12:55 AM 52.0 °F 35.2 °F 53% 30.08 in 10.0 mi ESE 8.1 mph - N/A   Overcast
1:14 AM 51.3 °F 35.4 °F 55% 30.07 in 10.0 mi ESE 9.2 mph - N/A   Overcast
1:34 AM 51.3 °F 35.8 °F 55% 30.06 in 10.0 mi ESE 6.9 mph - N/A   Overcast
1:54 AM 51.1 °F 36.1 °F 57% 30.06 in 10.0 mi ESE 5.8 mph - N/A   Overcast
2:14 AM 50.7 °F 36.3 °F 58% 30.04 in 10.0 mi ESE 6.9 mph - N/A   Overcast
2:35 AM 50.5 °F 36.7 °F 59% 30.03 in 10.0 mi East 5.8 mph - N/A   Scattered Clouds
2:54 AM 50.0 °F 37.2 °F 62% 30.02 in 10.0 mi East 5.8 mph - N/A   Scattered Clouds
3:15 AM 50.2 °F 37.2 °F 61% 30.01 in 10.0 mi East 5.8 mph - N/A   Mostly Cloudy
3:35 AM 50.4 °F 37.9 °F 62% 30.00 in 10.0 mi East 4.6 mph - N/A   Overcast
3:54 AM 50.5 °F 37.8 °F 62% 30.00 in 10.0 mi East 5.8 mph - N/A   Overcast
4:15 AM 50.4 °F 37.9 °F 62% 30.00 in 10.0 mi East 4.6 mph - N/A   Overcast
4:35 AM 50.4 °F 38.5 °F 64% 29.99 in 10.0 mi East 5.8 mph - N/A   Overcast
4:54 AM 50.5 °F 39.0 °F 65% 29.99 in 10.0 mi East 4.6 mph - N/A   Overcast
5:15 AM 50.2 °F 39.6 °F 67% 29.98 in 10.0 mi East 4.6 mph - N/A   Overcast
5:34 AM 50.5 °F 39.9 °F 67% 29.97 in 10.0 mi East 5.8 mph - N/A   Overcast
5:55 AM 50.7 °F 39.7 °F 66% 29.97 in 10.0 mi East 6.9 mph - N/A Rain Light Rain
6:14 AM 49.5 °F 42.4 °F 77% 29.97 in 10.0 mi East 5.8 mph - N/A Rain Light Rain
6:35 AM 48.7 °F 43.7 °F 83% 29.96 in 10.0 mi East 4.6 mph - N/A Rain Light Rain
6:55 AM 48.6 °F 44.1 °F 84% 29.96 in 10.0 mi East 5.8 mph - N/A Rain Light Rain
7:14 AM 49.3 °F 44.8 °F 84% 29.96 in 10.0 mi East 4.6 mph - N/A Rain Light Rain
7:35 AM 50.2 °F 45.3 °F 83% 29.96 in 10.0 mi East 5.8 mph - N/A Rain Light Rain
7:55 AM 50.4 °F 45.9 °F 85% 29.96 in 7.0 mi ESE 8.1 mph - N/A Rain Light Rain
8:14 AM 50.2 °F 47.1 °F 89% 29.96 in 7.0 mi ESE 6.9 mph - N/A Rain Rain
8:35 AM 50.0 °F 47.8 °F 92% 29.96 in 4.0 mi ESE 5.8 mph - N/A   Overcast
9:14 AM 50.4 °F 49.3 °F 96% 29.94 in 2.0 mi ESE 9.2 mph - N/A Rain Light Rain
9:35 AM 50.5 °F 49.6 °F 97% 29.94 in 4.0 mi ESE 8.1 mph 16.1 mph N/A Rain Rain
9:55 AM 50.5 °F 49.8 °F 97% 29.93 in 2.5 mi ESE 10.4 mph - N/A Rain Rain
10:14 AM 50.7 °F 50.2 °F 98% 29.93 in 3.0 mi ESE 9.2 mph - N/A Rain Rain
10:35 AM 51.3 °F 50.7 °F 98% 29.92 in 3.0 mi ESE 8.1 mph - N/A Rain Light Rain
10:54 AM 52.0 °F 51.4 °F 98% 29.92 in 4.0 mi ESE 8.1 mph - N/A Rain Light Rain
11:14 AM 52.2 °F 51.6 °F 98% 29.91 in 4.0 mi ESE 8.1 mph - N/A   Light Drizzle
11:35 AM 52.2 °F 51.6 °F 98% 29.91 in 2.5 mi ESE 6.9 mph - N/A Rain Light Rain
11:54 AM 52.3 °F 51.8 °F 98% 29.90 in 1.8 mi ESE 9.2 mph - N/A Rain Rain
12:15 PM 52.7 °F 52.3 °F 99% 29.90 in 1.8 mi ESE 6.9 mph - N/A Rain Light Rain
12:35 PM 52.9 °F 52.3 °F 98% 29.90 in 1.8 mi ESE 6.9 mph - N/A Rain Light Rain
12:54 PM 53.1 °F 52.7 °F 99% 29.89 in 1.8 mi ESE 6.9 mph - N/A Rain Light Rain
1:15 PM 53.2 °F 52.9 °F 99% 29.89 in 1.2 mi ESE 6.9 mph - N/A Rain Light Rain
1:34 PM 53.6 °F 53.2 °F 99% 29.88 in 1.0 mi ESE 5.8 mph - N/A   Drizzle
1:55 PM 53.8 °F 53.4 °F 99% 29.87 in 1.2 mi ESE 5.8 mph - N/A   Light Drizzle
2:14 PM 54.1 °F 54.0 °F 99% 29.87 in 1.2 mi East 5.8 mph - N/A Rain Rain
2:35 PM 54.7 °F 54.3 °F 99% 29.87 in 1.2 mi East 5.8 mph - N/A   Overcast
2:55 PM 54.9 °F 54.5 °F 99% 29.86 in 2.5 mi East 4.6 mph - N/A   Light Drizzle
3:14 PM 55.0 °F 54.9 °F 99% 29.86 in 2.0 mi East 4.6 mph - N/A   Overcast
3:35 PM 55.6 °F 55.2 °F 99% 29.86 in 2.5 mi East 3.5 mph - N/A Rain Light Rain
3:55 PM 55.8 °F 55.6 °F 99% 29.85 in 5.0 mi ESE 3.5 mph - N/A   Drizzle
4:14 PM 55.8 °F 55.6 °F 99% 29.85 in 2.5 mi ESE 4.6 mph - N/A   Overcast
4:35 PM 55.9 °F 55.6 °F 99% 29.84 in 2.5 mi Calm Calm - N/A   Overcast
4:55 PM 55.9 °F 55.8 °F 99% 29.84 in 2.0 mi Calm Calm - N/A   Drizzle
5:14 PM 56.5 °F 56.1 °F 99% 29.84 in 2.5 mi NE 3.5 mph - N/A   Overcast
5:35 PM 55.9 °F 55.8 °F 99% 29.84 in 4.0 mi NE 3.5 mph - N/A   Light Drizzle
5:54 PM 55.9 °F 55.8 °F 99% 29.83 in 7.0 mi NE 4.6 mph - N/A   Overcast
6:14 PM 55.8 °F 55.6 °F 99% 29.84 in 10.0 mi NE 5.8 mph - N/A   Overcast
6:35 PM 55.6 °F 55.2 °F 99% 29.83 in 10.0 mi NE 5.8 mph - N/A   Overcast
6:54 PM 55.6 °F 55.2 °F 99% 29.84 in 10.0 mi NE 4.6 mph - N/A   Overcast
7:15 PM 55.2 °F 55.0 °F 99% 29.83 in 1.8 mi ENE 4.6 mph - N/A   Overcast
7:35 PM 55.6 °F 55.2 °F 99% 29.82 in 1.2 mi East 5.8 mph - N/A   Overcast
7:54 PM 55.2 °F 55.0 °F 99% 29.83 in 1.5 mi ENE 3.5 mph - N/A   Overcast
8:15 PM 54.9 °F 54.9 °F 100% 29.83 in 1.2 mi NNE 3.5 mph - N/A   Overcast
8:35 PM 54.9 °F 54.9 °F 100% 29.83 in 1.2 mi Calm Calm - N/A   Overcast
8:54 PM 54.9 °F 54.7 °F 99% 29.84 in 0.8 mi NE 3.5 mph - N/A   Overcast
9:15 PM 54.9 °F 54.9 °F 100% 29.85 in 0.5 mi Calm Calm - N/A Rain Rain
9:35 PM 54.7 °F 54.7 °F 100% 29.85 in 0.8 mi Calm Calm - N/A   Drizzle
9:54 PM 54.7 °F 54.7 °F 100% 29.85 in 0.8 mi Calm Calm - N/A   Drizzle
10:15 PM 54.3 °F 54.3 °F 100% 29.85 in 0.8 mi Calm Calm - N/A   Drizzle
10:34 PM 54.7 °F 54.7 °F 100% 29.85 in 1.2 mi Calm Calm - N/A   Drizzle
10:55 PM 54.1 °F 54.1 °F 100% 29.86 in 0.8 mi WNW 3.5 mph - N/A Rain Light Rain
11:14 PM 54.1 °F 54.1 °F 100% 29.85 in 1.0 mi Calm Calm - N/A   Drizzle
11:34 PM 54.1 °F 54.1 °F 100% 29.85 in 0.5 mi Calm Calm - N/A Fog Fog
11:55 PM 54.1 °F 54.1 °F 100% 29.85 in 0.8 mi Calm Calm - N/A   Overcast